SCP
0 0 0 0 0 -0 -0 -0 -0 -0 -0 -0 -0 -0 -0 -0 -0 -0 -0 -0 -0 0 0 0 0 0 0 0 0 0 0 0 0 0 0 0 0 0 0 0 0 0 0 0 0 0 0
0 0 0 -0 -0 0 -0 -0 -0 -0 -0 -0 -0 -0 -0 -0 -0 -0 -0 -0 -0 -0 0 0 0 0 0 0 0 0 0 0 0 0 0 0 0 0 0 0 0 0 0 0 0 0 0
0 0 0 0 -0 -0 -0 -0 -0 -0 -0 -0 -0 -0 -0 -0 -0 -0 -0 0 0 0 0 0 -0 0 0 0 0 0 0 0 0 0 0 0 0 0 0 0 0 0 0 0 0 0 0
0 0 0 0 0 -0 -0 -0 -0 -0 -0 -0 -0 -0 -0 -0 -0 -0 -0 -0 -0 -0 -0 -0 -0 0 0 0 0 0 0 0 0 0 0 0 0 0 0 0 0 0 0 0 0 0 0
0 0 0 0 0 0 0 -0 -0 -0 -0 -0 -0 -0 -0 -0 -0 -0 -0 -0 -0 0 0 0 0 0 0 0 0 0 0 0 0 0 0 0 0 0 0 0 0 0 0 0 0 0 0
0 0 0 0 0 0 -0 0 -0 -0 -0 -0 -0 -0 -0 -0 -0 -0 -0 0 0 0 0 0 0 0 0 0 0 0 0 0 0 0 0 0 0 0 0 0 0 0 0 0 0 0 0
0 0 0 0 0 0 0 0 0 0 -0 -0 -0 -0 -0 -0 -0 0 0 0 0 0 0 0 0 0 0 0 0 0 0 0 0 0 0 0 0 0 0 0 0 0 0 0 0 0 0
0 0 0 0 0 0 0 0 0 -0 -0 -0 -0 -0 -0 -0 0 0 0 0 0 0 0 0 0 0 0 0 0 0 0 0 0 0 0 0 0 0 0 0 0 0 0 0 0 0 0
0 0 0 0 0 0 0 0 0 0 0 -0 -0 -0 -0 -0 -0 0 0 0 0 0 0 0 0 0 0 0 0 0 0 0 0 0 0 0 0 0 0 0 0 0 0 0 0 0 0
0 0 0 0 0 0 0 0 0 0 0 -0 0 -0 0 -0 0 0 0 0 0 0 0 0 0 0 0 0 0 0 0 0 0 0 0 0 0 0 0 0 0 0 0 0 0 0 0
0 0 0 0 0 0 0 0 0 0 0 0 0 0 0 0 0 0 0 0 0 0 0 0 0 0 0 0 0 0 0 0 0 0 0 0 0 0 0 0 0 0 0 0 0 0 0
0 0 0 0 0 0 0 0 0 0 0 0 0 0 0 0 0 0 0 0 0 0 0 0 0 0 0 0 0 0 0 0 0 0 0 0 0 0 0 0 0 0 0 0 0 0 0
0 0 0 0 0 0 -0 -0 0 0 0 0 0 0 0 0 0 0 0 0 0 0 0 0 0 0 0 0 0 0 0 0 0 0 0 0 0 0 0 0 0 0 0 0 0 0 0
0 0 0 0 -0 -0 -0 -0 0 0 0 0 0 0 0 0 0 0 0 0 0 0 0 0 0 0 0 0 0 0 0 0 0 0 0 0 0 0 0 0 0 0 0 0 0 0 0
0 0 0 0 0 0 0 0 0 -0 -0 -0 -0 0 0 0 -0 0 0 0 0 0 0 0 0 0 0 0 0 0 0 0 0 0 0 0 0 0 0 0 0 0 0 0 0 0 0
-0 -0 0 0 -0 -0 0 0 -0 -0 -0 -0 0 0 0 0 0 0 0 0 0 0 0 0 0 0 0 0 0 0 0 0 0 0 0 0 0 0 0 0 0 0 0 0 0 0 0
-0 -0 -0 0 0 0 0 -0 -0 -0 -0 -0 0 0 0 -0 0 0 0 0 0 0 0 0 0 0 0 0 0 0 0 0 0 0 0 0 0 0 0 0 0 0 0 0 0 0 0
0 0 0 0 0 0 -0 -0 -0 0 -0 0 0 0 0 0 0 0 0 0 0 0 0 0 0 0 0 0 0 0 0 0 0 0 0 0 0 0 0 0 0 0 0 0 0 0 0
0 0 0 0 0 0 -0 -0 0 -0 0 0 0 0 0 0 0 0 0 0 0 0 0 0 0 0 0 0 0 0 0 0 0 0 0 0 0 0 0 0 0 0 0 0 0 0 0
0 0 0 0 0 0 0 0 -0 0 0 0 0 0 0 0 0 0 0 0 0 0 0 0 0 0 0 0 0 0 0 0 0 0 0 0 0 0 0 0 0 0 0 0 0 0 0
0 0 0 0 0 0 0 0 0 -0 0 0 0 0 0 0 0 0 0 0 0 0 0 0 0 0 0 0 0 0 0 0 0 0 0 0 0 0 0 0 0 0 0 0 0 0 0
0 0 0 0 0 0 0 0 0 0 -0 0 0 0 0 0 0 0 0 0 0 0 0 0 0 0 0 0 0 0 0 0 0 0 0 0 0 0 0 0 0 0 0 0 0 0 0
0 0 0 0 0 0 0 0 0 0 0 0 0 0 0 0 0 0 0 0 0 0 0 0 0 0 0 0 0 0 0 0 0 0 0 0 0 0 0 0 0 0 0 0 0 0 0
0 0 0 0 0 0 0 0 0 0 0 0 0 0 0 0 0 0 0 0 0 0 0 0 0 0 0 0 0 0 0 0 0 0 0 0 0 0 0 0 0 0 0 0 0 0 0
0 0 0 0 0 0 0 0 0 0 0 0 0 0 0 0 0 0 0 0 0 0 0 0 0 0 0 0 0 0 0 0 0 0 0 0 0 0 0 0 0 0 0 0 0 0 0
0 0 0 0 0 0 0 0 0 0 0 0 0 0 0 0 0 0 0 0 0 0 0 0 0 0 0 0 0 0 0 0 0 0 0 0 0 0 0 0 0 0 0 0 0 0 0
0 0 0 0 0 0 0 0 0 0 0 0 0 0 0 0 0 0 0 0 0 0 0 0 0 0 0 0 0 0 0 0 0 0 0 0 0 0 0 0 0 0 0 0 0 0 0
0 0 0 0 0 0 0 0 0 0 0 0 0 0 0 0 0 0 0 0 0 0 0 0 0 0 0 0 0 0 0 0 0 0 0 0 0 0 0 0 0 0 0 0 0 0 0
0 0 0 0 0 0 0 0 0 0 0 0 0 0 0 0 0 0 0 0 0 0 0 0 0 0 0 0 0 0 0 0 0 0 0 0 0 0 0 0 0 0 0 0 0 0 0
Wind_Speed_500mb
46 47 50 52 55 56 56 55 55 53 51 46 40 31 22 18 14 12 11 10 10 12 12 9 7 8 8 9 8 8 8 12 17 21 24 18 12 10 7 8 6 7 6 9 20 24 24
43 45 46 48 51 54 56 56 56 55 55 52 45 36 28 20 14 9 8 9 13 12 10 8 7 7 9 7 13 16 13 12 18 23 18 11 5 1 6 6 8 9 8 13 15 23 21
43 44 45 46 48 49 53 55 56 56 56 56 51 42 30 22 15 10 8 9 11 10 10 7 6 10 17 18 13 20 20 14 14 14 10 5 3 4 3 3 2 5 8 9 12 15 11
42 42 43 44 46 48 48 49 53 56 56 57 54 44 33 23 15 11 11 12 12 11 10 8 9 13 14 7 22 25 20 16 17 16 9 4 7 7 2 1 13 8 9 7 13 6 13
40 42 42 41 41 42 45 48 50 54 57 58 56 45 34 24 18 15 15 14 17 16 14 14 14 11 14 9 28 28 23 17 21 12 11 14 8 5 4 9 9 12 7 7 16 10 5
39 40 40 41 41 39 39 40 47 53 57 58 56 49 35 25 17 14 19 25 14 17 16 16 17 12 10 3 16 30 25 22 15 7 8 8 7 5 7 8 8 6 5 7 9 9 2
38 39 38 38 38 38 34 36 44 51 55 56 53 51 42 30 20 15 17 11 9 6 12 17 15 24 25 12 9 15 37 31 24 6 7 4 6 12 17 14 10 4 6 14 15 26 6
38 39 40 39 37 35 36 42 50 56 57 60 55 49 44 36 24 16 14 4 8 17 21 36 40 47 47 26 11 14 25 26 13 11 6 8 12 19 9 8 10 9 12 16 18 22 11
38 38 38 39 40 38 38 46 56 61 62 63 61 52 44 37 29 19 13 4 13 16 8 19 17 24 34 32 18 23 26 32 9 12 12 14 17 10 12 9 8 10 10 11 18 10 6
38 39 40 41 42 45 47 53 60 63 65 64 65 58 48 38 25 16 15 9 14 12 7 11 7 6 23 15 10 47 32 25 4 19 13 11 14 14 10 13 16 13 19 21 13 2 14
37 40 41 44 45 47 49 52 57 60 63 68 65 60 45 38 28 20 11 8 14 2 8 2 3 8 27 19 3 8 50 41 16 12 12 17 6 7 12 26 11 19 4 15 14 12 1
36 36 39 42 44 48 54 55 56 62 67 70 64 49 41 34 25 13 17 7 5 6 8 6 9 8 10 10 4 7 12 26 18 11 6 16 2 11 14 10 14 10 7 3 8 5 9
33 34 38 41 47 55 57 53 56 63 68 69 53 37 31 22 4 15 16 6 5 4 10 12 7 3 8 7 7 5 9 10 12 5 10 14 25 13 10 14 23 8 7 9 8 7 22
34 36 36 41 47 47 52 55 59 65 75 67 43 28 10 6 18 16 13 6 3 3 7 7 9 12 7 14 8 8 6 3 4 5 4 6 18 12 7 15 18 13 16 11 13 7 16
39 36 38 39 42 48 54 55 61 69 77 61 34 25 27 20 16 13 3 4 4 8 11 13 11 10 13 12 13 15 12 6 4 7 9 4 8 9 7 5 12 6 9 6 5 3 7
37 35 36 38 42 47 51 53 59 69 74 53 19 25 31 20 14 8 7 4 3 11 13 16 13 13 11 12 11 12 5 5 7 1 2 6 8 6 14 4 13 13 4 2 4 10 14
34 33 35 38 41 45 45 48 54 65 70 42 14 10 26 6 11 9 6 2 1 25 26 12 7 9 9 12 10 16 12 18 15 4 11 3 6 6 7 10 16 4 4 3 3 6 11
32 35 36 39 36 38 39 44 47 60 67 43 13 6 29 6 10 6 4 12 19 14 13 9 9 16 18 11 13 12 19 9 8 6 7 6 4 8 19 24 21 24 34 24 12 9 8
31 35 36 35 38 32 34 40 40 46 59 54 15 11 17 7 6 5 12 9 6 10 9 9 6 6 8 2 8 13 7 16 28 15 6 9 4 7 11 2 7 4 6 5 0 2 9
29 32 35 28 32 32 31 34 33 37 45 40 12 8 14 21 17 8 9 7 8 21 4 9 6 8 8 5 5 10 10 9 27 19 28 13 7 12 19 5 12 14 17 19 12 6 8
29 32 35 25 30 31 30 28 28 33 32 30 15 4 7 7 8 6 5 6 7 7 15 19 4 6 5 6 13 11 9 11 17 25 12 9 8 12 12 27 29 34 39 31 30 27 16
31 31 31 22 25 30 32 27 21 26 28 21 9 8 7 5 11 13 7 4 8 6 6 10 11 10 11 9 18 34 26 11 11 9 13 16 7 9 22 32 34 30 34 30 28 30 28
35 29 29 22 22 25 27 28 20 25 24 11 12 6 2 6 9 8 2 8 11 23 13 17 9 16 20 29 39 42 43 47 30 19 9 11 9 2 12 7 9 13 14 17 7 6 5
36 32 29 22 19 22 23 24 20 18 15 8 8 2 4 5 2 7 10 25 23 15 21 32 27 15 16 35 59 54 57 53 39 36 42 12 11 8 8 8 6 2 4 10 4 11 11
33 32 26 20 16 20 22 21 21 18 11 13 12 3 4 5 11 14 17 9 24 32 18 24 29 16 49 40 8 13 8 3 6 5 14 26 10 5 5 5 11 4 1 5 5 10 5
32 30 28 16 18 23 25 24 23 17 13 14 14 11 7 2 9 10 4 14 8 10 9 9 23 36 18 5 0 5 5 6 4 8 17 13 9 5 2 5 7 6 6 8 3 17 15
34 30 27 24 23 25 23 22 23 21 18 18 16 13 12 9 14 11 7 6 8 9 7 12 15 18 11 2 4 6 5 1 5 8 3 8 6 14 10 6 11 3 5 8 2 6 20
33 30 28 27 24 24 23 23 22 22 23 19 18 18 21 12 29 31 22 24 18 13 4 10 15 2 7 5 4 2 3 1 3 7 5 2 2 4 4 3 10 2 6 1 5 15 31
31 32 29 27 21 24 23 25 21 22 25 23 25 24 22 30 31 56 63 62 54 43 25 8 6 4 5 6 2 4 4 5 1 5 6 2 6 4 12 9 3 2 16 35 26 34 47
Wind_Direction_500mb
20 21 20 18 19 21 21 20 18 17 18 16 9 2 352 337 325 316 312 312 317 319 316 307 279 258 270 262 228 156 145 163 178 165 151 139 162 162 180 189 153 173 258 292 288 286 278
16 17 18 18 17 17 20 21 20 19 17 15 13 8 360 351 338 331 326 323 322 327 330 311 279 259 243 252 186 188 181 171 136 145 151 144 118 165 154 169 162 190 238 278 280 274 270
10 11 13 14 15 17 16 18 19 19 17 14 11 7 1 355 351 349 341 337 339 339 342 334 300 280 262 235 182 180 178 199 188 168 139 128 31 30 71 359 28 304 327 320 229 256 247
4 7 9 11 12 11 15 17 18 16 16 14 10 8 7 6 4 349 332 324 325 324 322 326 311 299 259 218 205 185 184 195 201 189 201 279 311 309 223 14 17 37 39 349 283 273 262
358 0 4 6 8 11 12 14 19 19 14 11 10 8 5 2 354 345 333 321 307 296 288 293 298 293 269 226 200 195 195 191 187 210 253 267 288 241 108 84 13 360 234 237 305 234 262
352 355 358 0 2 7 13 18 20 18 14 9 5 5 360 350 341 334 330 324 314 291 272 269 266 296 245 173 207 210 203 191 195 226 291 206 168 93 51 85 224 216 236 242 254 284 132
345 347 351 354 356 359 4 8 6 7 4 358 358 355 353 339 324 311 322 332 339 296 255 234 269 262 275 302 242 217 210 212 234 274 195 49 99 217 223 200 193 222 234 252 263 271 189
339 341 342 345 347 349 347 348 350 352 354 353 347 346 342 336 311 292 308 333 349 300 294 283 261 251 251 250 317 194 198 190 161 191 120 27 242 228 211 199 220 237 264 274 279 264 156
330 334 337 339 337 335 332 332 335 338 341 342 341 336 332 331 309 271 263 293 341 334 280 292 256 243 232 230 231 223 190 200 162 176 185 182 231 133 177 217 204 233 194 251 231 309 273
328 329 333 334 334 330 329 327 328 331 332 332 333 333 324 327 317 256 233 263 323 312 31 275 250 236 170 140 228 227 213 191 197 202 159 229 255 213 193 242 169 256 197 232 256 298 270
326 329 334 334 335 334 334 332 332 331 328 328 328 329 314 318 294 250 207 264 309 270 342 176 130 144 163 173 331 206 213 204 196 176 133 239 197 159 206 236 131 236 202 226 246 247 216
326 331 335 335 337 337 336 335 335 331 331 329 323 324 309 314 298 254 208 250 205 38 257 7 118 160 143 246 310 105 168 206 233 169 221 244 280 178 220 253 177 234 279 42 49 115 235
334 333 335 335 337 338 341 338 336 337 340 334 329 325 309 301 320 162 173 171 48 187 323 3 340 342 211 198 225 199 166 176 193 141 238 273 252 255 220 283 283 154 66 310 302 257 266
339 337 334 337 340 346 346 345 342 343 346 338 343 336 13 7 164 140 146 70 204 344 354 344 325 318 79 16 23 350 134 203 204 137 101 210 281 185 184 196 212 211 167 182 247 232 283
331 328 333 345 347 346 346 346 346 348 351 346 6 69 51 68 116 143 175 97 315 6 339 340 325 46 19 5 27 13 354 284 305 175 173 232 268 326 348 311 155 203 200 204 279 331 275
329 328 334 340 343 345 345 345 350 352 356 352 18 61 51 77 72 62 83 203 112 41 349 14 32 20 17 11 16 28 313 291 360 289 82 227 274 285 302 307 244 207 179 254 56 285 260
324 329 330 331 332 336 343 344 351 351 359 359 23 72 14 72 14 35 110 232 209 46 33 360 334 307 316 334 324 321 285 308 359 2 281 157 118 273 322 230 242 296 98 82 350 186 260
323 329 330 331 327 331 341 345 353 352 357 13 33 58 21 347 38 24 43 325 356 15 1 218 197 239 237 232 246 255 256 242 350 6 6 12 200 238 236 259 286 269 270 262 228 210 227
320 323 325 328 333 340 347 347 356 356 358 1 6 346 10 32 71 19 332 323 333 24 354 351 323 43 41 266 295 320 327 84 39 12 108 356 207 297 297 84 51 94 225 149 121 187 197
317 319 323 334 337 339 337 340 354 356 358 0 8 18 20 56 58 58 360 285 327 330 20 348 298 73 20 334 282 284 268 297 333 336 312 101 243 219 254 270 312 270 234 238 226 238 257
307 312 321 329 331 334 332 337 349 0 5 7 24 44 26 347 16 5 288 306 318 337 0 359 342 87 73 261 292 245 302 318 310 287 253 145 249 231 267 261 263 267 265 260 250 245 232
303 304 310 317 329 329 329 334 344 355 2 21 31 21 3 331 325 344 338 315 307 349 323 309 252 317 331 276 261 278 288 267 260 273 163 155 253 240 265 275 258 258 258 255 253 262 264
299 303 304 311 321 321 328 333 340 355 355 27 52 36 27 324 314 327 290 346 314 331 283 237 322 322 302 282 281 275 265 259 242 245 239 193 201 13 277 313 324 272 260 222 235 231 234
302 300 296 300 310 314 314 321 325 333 337 337 350 23 131 275 251 282 304 305 299 294 285 285 300 278 263 302 309 287 267 256 246 243 230 210 167 171 271 1 252 255 70 106 245 244 220
299 306 305 286 303 304 313 316 317 313 325 336 323 266 184 249 245 289 279 267 302 304 277 270 282 275 305 305 295 319 327 315 167 123 224 201 159 220 193 210 293 179 102 29 24 279 201
293 290 309 299 302 295 303 308 308 304 306 313 298 254 238 210 243 238 295 272 297 292 310 260 313 315 307 228 96 272 289 306 297 355 35 77 97 134 196 191 247 230 172 1 206 280 100
290 285 288 289 287 288 293 296 294 293 291 300 278 268 263 248 276 243 229 273 269 270 276 299 338 328 347 319 239 236 263 221 344 329 292 134 150 202 218 254 286 170 332 336 311 276 322
279 281 284 289 287 298 289 292 286 280 284 289 281 263 250 249 275 268 259 235 240 234 230 342 323 203 314 249 254 299 291 268 268 259 329 199 185 213 173 220 287 86 1 101 270 317 319
273 281 282 284 287 291 286 283 281 276 274 275 279 286 264 248 271 283 287 276 258 254 263 246 258 258 258 284 323 305 312 329 322 280 344 314 169 216 181 224 237 198 281 298 292 310 310
Wind_Speed_850mb
46 47 50 52 55 56 56 55 55 53 51 46 40 31 22 18 14 12 11 10 10 12 12 9 7 8 8 9 8 8 8 12 17 21 24 18 12 10 7 8 6 7 6 9 20 24 24
43 45 46 48 51 54 56 56 56 55 55 52 45 36 28 20 14 9 8 9 13 12 10 8 7 7 9 7 13 16 13 12 18 23 18 11 5 1 6 6 8 9 8 13 15 23 21
43 44 45 46 48 49 53 55 56 56 56 56 51 42 30 22 15 10 8 9 11 10 10 7 6 10 17 18 13 20 20 14 14 14 10 5 3 4 3 3 2 5 8 9 12 15 11
42 42 43 44 46 48 48 49 53 56 56 57 54 44 33 23 15 11 11 12 12 11 10 8 9 13 14 7 22 25 20 16 17 16 9 4 7 7 2 1 13 8 9 7 13 6 13
40 42 42 41 41 42 45 48 50 54 57 58 56 45 34 24 18 15 15 14 17 16 14 14 14 11 14 9 28 28 23 17 21 12 11 14 8 5 4 9 9 12 7 7 16 10 5
39 40 40 41 41 39 39 40 47 53 57 58 56 49 35 25 17 14 19 25 14 17 16 16 17 12 10 3 16 30 25 22 15 7 8 8 7 5 7 8 8 6 5 7 9 9 2
38 39 38 38 38 38 34 36 44 51 55 56 53 51 42 30 20 15 17 11 9 6 12 17 15 24 25 12 9 15 37 31 24 6 7 4 6 12 17 14 10 4 6 14 15 26 6
38 39 40 39 37 35 36 42 50 56 57 60 55 49 44 36 24 16 14 4 8 17 21 36 40 47 47 26 11 14 25 26 13 11 6 8 12 19 9 8 10 9 12 16 18 22 11
38 38 38 39 40 38 38 46 56 61 62 63 61 52 44 37 29 19 13 4 13 16 8 19 17 24 34 32 18 23 26 32 9 12 12 14 17 10 12 9 8 10 10 11 18 10 6
38 39 40 41 42 45 47 53 60 63 65 64 65 58 48 38 25 16 15 9 14 12 7 11 7 6 23 15 10 47 32 25 4 19 13 11 14 14 10 13 16 13 19 21 13 2 14
37 40 41 44 45 47 49 52 57 60 63 68 65 60 45 38 28 20 11 8 14 2 8 2 3 8 27 19 3 8 50 41 16 12 12 17 6 7 12 26 11 19 4 15 14 12 1
36 36 39 42 44 48 54 55 56 62 67 70 64 49 41 34 25 13 17 7 5 6 8 6 9 8 10 10 4 7 12 26 18 11 6 16 2 11 14 10 14 10 7 3 8 5 9
33 34 38 41 47 55 57 53 56 63 68 69 53 37 31 22 4 15 16 6 5 4 10 12 7 3 8 7 7 5 9 10 12 5 10 14 25 13 10 14 23 8 7 9 8 7 22
34 36 36 41 47 47 52 55 59 65 75 67 43 28 10 6 18 16 13 6 3 3 7 7 9 12 7 14 8 8 6 3 4 5 4 6 18 12 7 15 18 13 16 11 13 7 16
39 36 38 39 42 48 54 55 61 69 77 61 34 25 27 20 16 13 3 4 4 8 11 13 11 10 13 12 13 15 12 6 4 7 9 4 8 9 7 5 12 6 9 6 5 3 7
37 35 36 38 42 47 51 53 59 69 74 53 19 25 31 20 14 8 7 4 3 11 13 16 13 13 11 12 11 12 5 5 7 1 2 6 8 6 14 4 13 13 4 2 4 10 14
34 33 35 38 41 45 45 48 54 65 70 42 14 10 26 6 11 9 6 2 1 25 26 12 7 9 9 12 10 16 12 18 15 4 11 3 6 6 7 10 16 4 4 3 3 6 11
32 35 36 39 36 38 39 44 47 60 67 43 13 6 29 6 10 6 4 12 19 14 13 9 9 16 18 11 13 12 19 9 8 6 7 6 4 8 19 24 21 24 34 24 12 9 8
31 35 36 35 38 32 34 40 40 46 59 54 15 11 17 7 6 5 12 9 6 10 9 9 6 6 8 2 8 13 7 16 28 15 6 9 4 7 11 2 7 4 6 5 0 2 9
29 32 35 28 32 32 31 34 33 37 45 40 12 8 14 21 17 8 9 7 8 21 4 9 6 8 8 5 5 10 10 9 27 19 28 13 7 12 19 5 12 14 17 19 12 6 8
29 32 35 25 30 31 30 28 28 33 32 30 15 4 7 7 8 6 5 6 7 7 15 19 4 6 5 6 13 11 9 11 17 25 12 9 8 12 12 27 29 34 39 31 30 27 16
31 31 31 22 25 30 32 27 21 26 28 21 9 8 7 5 11 13 7 4 8 6 6 10 11 10 11 9 18 34 26 11 11 9 13 16 7 9 22 32 34 30 34 30 28 30 28
35 29 29 22 22 25 27 28 20 25 24 11 12 6 2 6 9 8 2 8 11 23 13 17 9 16 20 29 39 42 43 47 30 19 9 11 9 2 12 7 9 13 14 17 7 6 5
36 32 29 22 19 22 23 24 20 18 15 8 8 2 4 5 2 7 10 25 23 15 21 32 27 15 16 35 59 54 57 53 39 36 42 12 11 8 8 8 6 2 4 10 4 11 11
33 32 26 20 16 20 22 21 21 18 11 13 12 3 4 5 11 14 17 9 24 32 18 24 29 16 49 40 8 13 8 3 6 5 14 26 10 5 5 5 11 4 1 5 5 10 5
32 30 28 16 18 23 25 24 23 17 13 14 14 11 7 2 9 10 4 14 8 10 9 9 23 36 18 5 0 5 5 6 4 8 17 13 9 5 2 5 7 6 6 8 3 17 15
34 30 27 24 23 25 23 22 23 21 18 18 16 13 12 9 14 11 7 6 8 9 7 12 15 18 11 2 4 6 5 1 5 8 3 8 6 14 10 6 11 3 5 8 2 6 20
33 30 28 27 24 24 23 23 22 22 23 19 18 18 21 12 29 31 22 24 18 13 4 10 15 2 7 5 4 2 3 1 3 7 5 2 2 4 4 3 10 2 6 1 5 15 31
31 32 29 27 21 24 23 25 21 22 25 23 25 24 22 30 31 56 63 62 54 43 25 8 6 4 5 6 2 4 4 5 1 5 6 2 6 4 12 9 3 2 16 35 26 34 47
Wind_Direction_850mb
20 21 20 18 19 21 21 20 18 17 18 16 9 2 352 337 325 316 312 312 317 319 316 307 279 258 270 262 228 156 145 163 178 165 151 139 162 162 180 189 153 173 258 292 288 286 278
16 17 18 18 17 17 20 21 20 19 17 15 13 8 360 351 338 331 326 323 322 327 330 311 279 259 243 252 186 188 181 171 136 145 151 144 118 165 154 169 162 190 238 278 280 274 270
10 11 13 14 15 17 16 18 19 19 17 14 11 7 1 355 351 349 341 337 339 339 342 334 300 280 262 235 182 180 178 199 188 168 139 128 31 30 71 359 28 304 327 320 229 256 247
4 7 9 11 12 11 15 17 18 16 16 14 10 8 7 6 4 349 332 324 325 324 322 326 311 299 259 218 205 185 184 195 201 189 201 279 311 309 223 14 17 37 39 349 283 273 262
358 0 4 6 8 11 12 14 19 19 14 11 10 8 5 2 354 345 333 321 307 296 288 293 298 293 269 226 200 195 195 191 187 210 253 267 288 241 108 84 13 360 234 237 305 234 262
352 355 358 0 2 7 13 18 20 18 14 9 5 5 360 350 341 334 330 324 314 291 272 269 266 296 245 173 207 210 203 191 195 226 291 206 168 93 51 85 224 216 236 242 254 284 132
345 347 351 354 356 359 4 8 6 7 4 358 358 355 353 339 324 311 322 332 339 296 255 234 269 262 275 302 242 217 210 212 234 274 195 49 99 217 223 200 193 222 234 252 263 271 189
339 341 342 345 347 349 347 348 350 352 354 353 347 346 342 336 311 292 308 333 349 300 294 283 261 251 251 250 317 194 198 190 161 191 120 27 242 228 211 199 220 237 264 274 279 264 156
330 334 337 339 337 335 332 332 335 338 341 342 341 336 332 331 309 271 263 293 341 334 280 292 256 243 232 230 231 223 190 200 162 176 185 182 231 133 177 217 204 233 194 251 231 309 273
328 329 333 334 334 330 329 327 328 331 332 332 333 333 324 327 317 256 233 263 323 312 31 275 250 236 170 140 228 227 213 191 197 202 159 229 255 213 193 242 169 256 197 232 256 298 270
326 329 334 334 335 334 334 332 332 331 328 328 328 329 314 318 294 250 207 264 309 270 342 176 130 144 163 173 331 206 213 204 196 176 133 239 197 159 206 236 131 236 202 226 246 247 216
326 331 335 335 337 337 336 335 335 331 331 329 323 324 309 314 298 254 208 250 205 38 257 7 118 160 143 246 310 105 168 206 233 169 221 244 280 178 220 253 177 234 279 42 49 115 235
334 333 335 335 337 338 341 338 336 337 340 334 329 325 309 301 320 162 173 171 48 187 323 3 340 342 211 198 225 199 166 176 193 141 238 273 252 255 220 283 283 154 66 310 302 257 266
339 337 334 337 340 346 346 345 342 343 346 338 343 336 13 7 164 140 146 70 204 344 354 344 325 318 79 16 23 350 134 203 204 137 101 210 281 185 184 196 212 211 167 182 247 232 283
331 328 333 345 347 346 346 346 346 348 351 346 6 69 51 68 116 143 175 97 315 6 339 340 325 46 19 5 27 13 354 284 305 175 173 232 268 326 348 311 155 203 200 204 279 331 275
329 328 334 340 343 345 345 345 350 352 356 352 18 61 51 77 72 62 83 203 112 41 349 14 32 20 17 11 16 28 313 291 360 289 82 227 274 285 302 307 244 207 179 254 56 285 260
324 329 330 331 332 336 343 344 351 351 359 359 23 72 14 72 14 35 110 232 209 46 33 360 334 307 316 334 324 321 285 308 359 2 281 157 118 273 322 230 242 296 98 82 350 186 260
323 329 330 331 327 331 341 345 353 352 357 13 33 58 21 347 38 24 43 325 356 15 1 218 197 239 237 232 246 255 256 242 350 6 6 12 200 238 236 259 286 269 270 262 228 210 227
320 323 325 328 333 340 347 347 356 356 358 1 6 346 10 32 71 19 332 323 333 24 354 351 323 43 41 266 295 320 327 84 39 12 108 356 207 297 297 84 51 94 225 149 121 187 197
317 319 323 334 337 339 337 340 354 356 358 0 8 18 20 56 58 58 360 285 327 330 20 348 298 73 20 334 282 284 268 297 333 336 312 101 243 219 254 270 312 270 234 238 226 238 257
307 312 321 329 331 334 332 337 349 0 5 7 24 44 26 347 16 5 288 306 318 337 0 359 342 87 73 261 292 245 302 318 310 287 253 145 249 231 267 261 263 267 265 260 250 245 232
303 304 310 317 329 329 329 334 344 355 2 21 31 21 3 331 325 344 338 315 307 349 323 309 252 317 331 276 261 278 288 267 260 273 163 155 253 240 265 275 258 258 258 255 253 262 264
299 303 304 311 321 321 328 333 340 355 355 27 52 36 27 324 314 327 290 346 314 331 283 237 322 322 302 282 281 275 265 259 242 245 239 193 201 13 277 313 324 272 260 222 235 231 234
302 300 296 300 310 314 314 321 325 333 337 337 350 23 131 275 251 282 304 305 299 294 285 285 300 278 263 302 309 287 267 256 246 243 230 210 167 171 271 1 252 255 70 106 245 244 220
299 306 305 286 303 304 313 316 317 313 325 336 323 266 184 249 245 289 279 267 302 304 277 270 282 275 305 305 295 319 327 315 167 123 224 201 159 220 193 210 293 179 102 29 24 279 201
293 290 309 299 302 295 303 308 308 304 306 313 298 254 238 210 243 238 295 272 297 292 310 260 313 315 307 228 96 272 289 306 297 355 35 77 97 134 196 191 247 230 172 1 206 280 100
290 285 288 289 287 288 293 296 294 293 291 300 278 268 263 248 276 243 229 273 269 270 276 299 338 328 347 319 239 236 263 221 344 329 292 134 150 202 218 254 286 170 332 336 311 276 322
279 281 284 289 287 298 289 292 286 280 284 289 281 263 250 249 275 268 259 235 240 234 230 342 323 203 314 249 254 299 291 268 268 259 329 199 185 213 173 220 287 86 1 101 270 317 319
273 281 282 284 287 291 286 283 281 276 274 275 279 286 264 248 271 283 287 276 258 254 263 246 258 258 258 284 323 305 312 329 322 280 344 314 169 216 181 224 237 198 281 298 292 310 310